CFQSS CYBW-CEN3

Flight info

Callsign CFQSS
Flight time 0h 48m
Altitude 7500
Route LOCKHEND LAKE CROSSFEILD DCT
Aircraft C172/L-V/N

Departure

Time 2026-04-29 01:33
Airport Calgary / Springbank Airport (CYBW)

Arrival

Time 2026-04-29 02:22
Airport Three Hills Airport (CEN3)
Time Latitude Longitude Altitude Speed Heading
2026-04-29 01:06 51.09937 -114.37301 3933 ft 0 kts 90°
2026-04-29 01:16 51.09938 -114.37282 3933 ft 4 kts 82°
2026-04-29 01:16 51.09948 -114.37250 3933 ft 0 kts 104°
2026-04-29 01:16 51.09913 -114.37244 3932 ft 6 kts 169°
2026-04-29 01:17 51.09905 -114.37211 3932 ft 5 kts 157°
2026-04-29 01:17 51.09873 -114.37208 3932 ft 3 kts 326°
2026-04-29 01:17 51.09916 -114.37210 3932 ft 9 kts 358°
2026-04-29 01:17 51.10001 -114.37211 3932 ft 14 kts 358°
2026-04-29 01:18 51.10099 -114.37211 3933 ft 6 kts 13°
2026-04-29 01:18 51.10105 -114.37209 3933 ft 0 kts 360°
2026-04-29 01:18 51.10108 -114.37201 3933 ft 3 kts 96°
2026-04-29 01:19 51.10109 -114.37092 3933 ft 13 kts 90°
2026-04-29 01:19 51.10107 -114.36955 3931 ft 6 kts 83°
2026-04-29 01:19 51.10152 -114.36936 3931 ft 8 kts
2026-04-29 01:19 51.10217 -114.36936 3931 ft 10 kts 360°
2026-04-29 01:20 51.10286 -114.36936 3931 ft 8 kts
2026-04-29 01:20 51.10307 -114.36935 3930 ft 0 kts
2026-04-29 01:24 51.10329 -114.36935 3930 ft 7 kts
2026-04-29 01:24 51.10345 -114.36835 3928 ft 12 kts 90°
2026-04-29 01:25 51.10345 -114.36687 3927 ft 14 kts 91°
2026-04-29 01:25 51.10345 -114.36518 3927 ft 13 kts 93°
2026-04-29 01:25 51.10369 -114.36422 3927 ft 7 kts 34°
2026-04-29 01:25 51.10406 -114.36392 3926 ft 4 kts
2026-04-29 01:26 51.10412 -114.36396 3926 ft 0 kts 266°
2026-04-29 01:31 51.10412 -114.36398 3926 ft 0 kts 264°
2026-04-29 01:31 51.10412 -114.36399 3926 ft 0 kts 266°
2026-04-29 01:31 51.10424 -114.36414 3926 ft 5 kts
2026-04-29 01:31 51.10480 -114.36447 3925 ft 10 kts 272°
2026-04-29 01:32 51.10481 -114.36771 3925 ft 51 kts 270°
2026-04-29 01:32 51.10478 -114.37473 3974 ft 70 kts 270°
2026-04-29 01:32 51.10467 -114.38250 4117 ft 70 kts 270°
2026-04-29 01:32 51.10460 -114.39033 4249 ft 72 kts 272°
2026-04-29 01:33 51.10446 -114.39828 4394 ft 71 kts 269°
2026-04-29 01:33 51.10523 -114.40589 4520 ft 73 kts 304°
2026-04-29 01:33 51.10979 -114.40904 4645 ft 76 kts 355°
2026-04-29 01:33 51.11487 -114.40891 4811 ft 73 kts 357°
2026-04-29 01:34 51.11994 -114.40835 4950 ft 72 kts 11°
2026-04-29 01:34 51.12455 -114.40506 5088 ft 74 kts 32°
2026-04-29 01:34 51.12855 -114.39972 5208 ft 76 kts 38°
2026-04-29 01:34 51.13243 -114.39411 5361 ft 74 kts 38°
2026-04-29 01:35 51.13625 -114.38824 5465 ft 78 kts 42°
2026-04-29 01:35 51.13959 -114.38148 5618 ft 76 kts 54°
2026-04-29 01:35 51.14257 -114.37426 5740 ft 77 kts 46°
2026-04-29 01:35 51.14741 -114.37096 5829 ft 78 kts
2026-04-29 01:36 51.15272 -114.36996 5992 ft 74 kts
2026-04-29 01:36 51.15788 -114.36929 6131 ft 72 kts
2026-04-29 01:36 51.16306 -114.36787 6240 ft 75 kts 13°
2026-04-29 01:36 51.16798 -114.36536 6370 ft 74 kts 21°
2026-04-29 01:37 51.17241 -114.36075 6474 ft 77 kts 35°
2026-04-29 01:37 51.17656 -114.35538 6612 ft 74 kts 29°
2026-04-29 01:37 51.18096 -114.35095 6714 ft 75 kts 21°
2026-04-29 01:37 51.18566 -114.34735 6832 ft 75 kts 21°
2026-04-29 01:38 51.19016 -114.34319 6946 ft 76 kts 25°
2026-04-29 01:38 51.19456 -114.33900 7100 ft 71 kts 23°
2026-04-29 01:38 51.19913 -114.33522 7184 ft 75 kts 19°
2026-04-29 01:38 51.20367 -114.33157 7309 ft 74 kts 17°
2026-04-29 01:39 51.20831 -114.32813 7450 ft 70 kts 16°
2026-04-29 01:39 51.21299 -114.32496 7536 ft 74 kts 13°
2026-04-29 01:39 51.21796 -114.32233 7605 ft 79 kts
2026-04-29 01:39 51.22346 -114.32046 7668 ft 82 kts
2026-04-29 01:40 51.22930 -114.31946 7697 ft 86 kts
2026-04-29 01:40 51.23540 -114.31855 7713 ft 91 kts
2026-04-29 01:40 51.24189 -114.31814 7711 ft 95 kts 357°
2026-04-29 01:40 51.24866 -114.31814 7672 ft 101 kts 356°
2026-04-29 01:41 51.25584 -114.31823 7625 ft 102 kts 356°
2026-04-29 01:41 51.26298 -114.31855 7582 ft 102 kts 355°
2026-04-29 01:41 51.27004 -114.31908 7545 ft 102 kts 354°
2026-04-29 01:41 51.27708 -114.31929 7546 ft 99 kts 358°
2026-04-29 01:42 51.28389 -114.31892 7559 ft 97 kts 359°
2026-04-29 01:42 51.29059 -114.31858 7568 ft 96 kts 358°
2026-04-29 01:42 51.29728 -114.31838 7571 ft 95 kts 359°
2026-04-29 01:42 51.30377 -114.31666 7581 ft 96 kts 17°
2026-04-29 01:43 51.30926 -114.31038 7595 ft 100 kts 44°
2026-04-29 01:43 51.31319 -114.30096 7583 ft 103 kts 51°
2026-04-29 01:43 51.31698 -114.29139 7600 ft 101 kts 51°
2026-04-29 01:43 51.32076 -114.28191 7594 ft 102 kts 51°
2026-04-29 01:44 51.32451 -114.27231 7593 ft 102 kts 51°
2026-04-29 01:44 51.32862 -114.26316 7592 ft 100 kts 43°
2026-04-29 01:44 51.33338 -114.25508 7587 ft 99 kts 39°
2026-04-29 01:44 51.33813 -114.24727 7588 ft 99 kts 38°
2026-04-29 01:45 51.34317 -114.23954 7576 ft 100 kts 37°
2026-04-29 01:45 51.34748 -114.23074 7569 ft 104 kts 54°
2026-04-29 01:45 51.35052 -114.22024 7572 ft 104 kts 58°
2026-04-29 01:45 51.35338 -114.20950 7577 ft 104 kts 60°
2026-04-29 01:46 51.35614 -114.19894 7576 ft 104 kts 59°
2026-04-29 01:46 51.35906 -114.18829 7577 ft 103 kts 57°
2026-04-29 01:46 51.36141 -114.17729 7575 ft 106 kts 67°
2026-04-29 01:46 51.36350 -114.16612 7588 ft 104 kts 65°
2026-04-29 01:47 51.36608 -114.15533 7577 ft 104 kts 59°
2026-04-29 01:47 51.36889 -114.14481 7585 ft 103 kts 60°
2026-04-29 01:47 51.37156 -114.13407 7583 ft 104 kts 61°
2026-04-29 01:47 51.37440 -114.12353 7585 ft 103 kts 57°
2026-04-29 01:48 51.37760 -114.11329 7587 ft 102 kts 54°
2026-04-29 01:48 51.38102 -114.10326 7585 ft 102 kts 52°
2026-04-29 01:48 51.38475 -114.09358 7595 ft 102 kts 50°
2026-04-29 01:48 51.38863 -114.08413 7592 ft 101 kts 47°
2026-04-29 01:49 51.39290 -114.07529 7589 ft 101 kts 43°
2026-04-29 01:49 51.39749 -114.06668 7583 ft 101 kts 40°
2026-04-29 01:49 51.40216 -114.05841 7581 ft 100 kts 39°
2026-04-29 01:49 51.40700 -114.05030 7590 ft 101 kts 41°
2026-04-29 01:50 51.41085 -114.04076 7586 ft 105 kts 56°
2026-04-29 01:50 51.41333 -114.02962 7597 ft 107 kts 66°
2026-04-29 01:50 51.41512 -114.01813 7601 ft 106 kts 67°
2026-04-29 01:50 51.41718 -114.00681 7602 ft 105 kts 65°
2026-04-29 01:51 51.41925 -113.99545 7595 ft 106 kts 65°
2026-04-29 01:51 51.42149 -113.98421 7596 ft 105 kts 64°
2026-04-29 01:51 51.42374 -113.97324 7589 ft 105 kts 63°
2026-04-29 01:51 51.42603 -113.96215 7594 ft 104 kts 62°
2026-04-29 01:52 51.42869 -113.95132 7584 ft 104 kts 58°
2026-04-29 01:52 51.43173 -113.94070 7578 ft 104 kts 55°
2026-04-29 01:52 51.43498 -113.93034 7568 ft 104 kts 53°
2026-04-29 01:52 51.43733 -113.91933 7563 ft 109 kts 77°
2026-04-29 01:53 51.43756 -113.90714 7503 ft 111 kts 80°
2026-04-29 01:53 51.43799 -113.89465 7409 ft 112 kts 79°
2026-04-29 01:53 51.43867 -113.88225 7337 ft 111 kts 77°
2026-04-29 01:53 51.43954 -113.86998 7256 ft 111 kts 76°
2026-04-29 01:54 51.44035 -113.85765 7186 ft 110 kts 78°
2026-04-29 01:54 51.44082 -113.84541 7112 ft 110 kts 79°
2026-04-29 01:54 51.44135 -113.83334 7045 ft 108 kts 78°
2026-04-29 01:54 51.44210 -113.82143 6975 ft 107 kts 76°
2026-04-29 01:55 51.44367 -113.80992 6919 ft 104 kts 68°
2026-04-29 01:55 51.44545 -113.79868 6854 ft 104 kts 68°
2026-04-29 01:55 51.44735 -113.78732 6783 ft 104 kts 66°
2026-04-29 01:55 51.44981 -113.77663 6716 ft 102 kts 60°
2026-04-29 01:56 51.45141 -113.76505 6626 ft 107 kts 74°
2026-04-29 01:56 51.45242 -113.75342 6575 ft 105 kts 75°
2026-04-29 01:56 51.45342 -113.74160 6503 ft 106 kts 76°
2026-04-29 01:56 51.45446 -113.73013 6568 ft 103 kts 73°
2026-04-29 01:57 51.45582 -113.71890 6566 ft 104 kts 70°
2026-04-29 01:57 51.45771 -113.70780 6606 ft 102 kts 67°
2026-04-29 01:57 51.45949 -113.69668 6613 ft 104 kts 68°
2026-04-29 01:57 51.46122 -113.68557 6641 ft 103 kts 68°
2026-04-29 01:58 51.46315 -113.67431 6640 ft 104 kts 66°
2026-04-29 01:58 51.46539 -113.66320 6618 ft 106 kts 63°
2026-04-29 01:58 51.46772 -113.65210 6649 ft 103 kts 62°
2026-04-29 01:58 51.47010 -113.64115 6622 ft 106 kts 62°
2026-04-29 01:59 51.47243 -113.63006 6638 ft 105 kts 63°
2026-04-29 01:59 51.47474 -113.61877 6620 ft 106 kts 63°
2026-04-29 01:59 51.47701 -113.60764 6628 ft 106 kts 64°
2026-04-29 01:59 51.47937 -113.59632 6616 ft 106 kts 61°
2026-04-29 02:00 51.48233 -113.58571 6629 ft 104 kts 58°
2026-04-29 02:00 51.48423 -113.57419 6609 ft 110 kts 74°
2026-04-29 02:00 51.48509 -113.56213 6631 ft 107 kts 72°
2026-04-29 02:00 51.48660 -113.55034 6623 ft 108 kts 77°
2026-04-29 02:01 51.48483 -113.53841 6639 ft 115 kts 113°
2026-04-29 02:01 51.47928 -113.52899 6654 ft 118 kts 142°
2026-04-29 02:01 51.47178 -113.52345 6647 ft 120 kts 166°
2026-04-29 02:01 51.46363 -113.52429 6629 ft 119 kts 205°
2026-04-29 02:02 51.45780 -113.53285 6597 ft 111 kts 250°
2026-04-29 02:02 51.45718 -113.54435 6597 ft 99 kts 293°
2026-04-29 02:02 51.46141 -113.55216 6595 ft 93 kts 334°
2026-04-29 02:02 51.46781 -113.55287 6594 ft 95 kts 11°
2026-04-29 02:03 51.47373 -113.54766 6591 ft 97 kts 27°
2026-04-29 02:03 51.47918 -113.54110 6604 ft 98 kts 32°
2026-04-29 02:03 51.48425 -113.53381 6600 ft 100 kts 41°
2026-04-29 02:03 51.48809 -113.52402 6581 ft 106 kts 58°
2026-04-29 02:04 51.49049 -113.51287 6596 ft 106 kts 66°
2026-04-29 02:04 51.49256 -113.50144 6594 ft 106 kts 65°
2026-04-29 02:04 51.49516 -113.49049 6596 ft 105 kts 59°
2026-04-29 02:04 51.49818 -113.47992 6604 ft 104 kts 56°
2026-04-29 02:05 51.50117 -113.46941 6615 ft 103 kts 57°
2026-04-29 02:05 51.50417 -113.45895 6610 ft 102 kts 56°
2026-04-29 02:05 51.50742 -113.44875 6490 ft 105 kts 53°
2026-04-29 02:05 51.51092 -113.43874 6427 ft 101 kts 52°
2026-04-29 02:06 51.51451 -113.42887 6289 ft 104 kts 51°
2026-04-29 02:06 51.51822 -113.41909 6192 ft 103 kts 53°
2026-04-29 02:06 51.52158 -113.40881 6080 ft 104 kts 55°
2026-04-29 02:06 51.52478 -113.39848 5986 ft 103 kts 56°
2026-04-29 02:07 51.52776 -113.38807 5874 ft 104 kts 58°
2026-04-29 02:07 51.53064 -113.37762 5713 ft 103 kts 60°
2026-04-29 02:07 51.53333 -113.36678 5513 ft 104 kts 63°
2026-04-29 02:07 51.53594 -113.35605 5348 ft 103 kts 60°
2026-04-29 02:08 51.53878 -113.34586 5281 ft 97 kts 59°
2026-04-29 02:08 51.54189 -113.33607 5250 ft 99 kts 54°
2026-04-29 02:08 51.54445 -113.32574 5263 ft 101 kts 69°
2026-04-29 02:08 51.54608 -113.31486 5269 ft 100 kts 68°
2026-04-29 02:09 51.54800 -113.30405 5209 ft 101 kts 66°
2026-04-29 02:09 51.54991 -113.29311 5163 ft 101 kts 70°
2026-04-29 02:09 51.55138 -113.28215 5113 ft 102 kts 70°
2026-04-29 02:09 51.55304 -113.27106 5114 ft 101 kts 69°
2026-04-29 02:10 51.55484 -113.26010 5116 ft 102 kts 67°
2026-04-29 02:10 51.55711 -113.24947 5117 ft 101 kts 61°
2026-04-29 02:10 51.56011 -113.23933 5116 ft 99 kts 53°
2026-04-29 02:10 51.56397 -113.23036 5125 ft 97 kts 45°
2026-04-29 02:11 51.56840 -113.22203 5125 ft 97 kts 44°
2026-04-29 02:11 51.57198 -113.21252 5117 ft 101 kts 56°
2026-04-29 02:11 51.57497 -113.20263 5141 ft 99 kts 58°
2026-04-29 02:11 51.57794 -113.19250 5131 ft 100 kts 57°
2026-04-29 02:12 51.58081 -113.18234 5144 ft 100 kts 58°
2026-04-29 02:12 51.58375 -113.17215 5156 ft 99 kts 58°
2026-04-29 02:12 51.58842 -113.16486 5074 ft 98 kts 10°
2026-04-29 02:12 51.59504 -113.16480 4991 ft 90 kts 359°
2026-04-29 02:13 51.60124 -113.16550 4873 ft 91 kts 353°
2026-04-29 02:13 51.60768 -113.16755 4737 ft 96 kts 349°
2026-04-29 02:13 51.61412 -113.16995 4675 ft 94 kts 348°
2026-04-29 02:13 51.62052 -113.17267 4589 ft 96 kts 346°
2026-04-29 02:14 51.62692 -113.17564 4575 ft 95 kts 346°
2026-04-29 02:14 51.63325 -113.17886 4583 ft 95 kts 339°
2026-04-29 02:14 51.63924 -113.18355 4576 ft 97 kts 336°
2026-04-29 02:14 51.64503 -113.18913 4582 ft 98 kts 329°
2026-04-29 02:15 51.65064 -113.19529 4589 ft 97 kts 330°
2026-04-29 02:15 51.65616 -113.20147 4596 ft 96 kts 330°
2026-04-29 02:15 51.66213 -113.20645 4587 ft 96 kts 341°
2026-04-29 02:15 51.66846 -113.20914 4590 ft 94 kts 353°
2026-04-29 02:16 51.67505 -113.21031 4591 ft 95 kts 356°
2026-04-29 02:16 51.68163 -113.21062 4593 ft 94 kts
2026-04-29 02:16 51.68778 -113.20730 4596 ft 94 kts 22°
2026-04-29 02:16 51.69400 -113.20350 4574 ft 95 kts 18°
2026-04-29 02:17 51.69986 -113.19862 4556 ft 98 kts 39°
2026-04-29 02:17 51.70438 -113.19053 4571 ft 94 kts 45°
2026-04-29 02:17 51.70876 -113.18237 4478 ft 99 kts 44°
2026-04-29 02:17 51.71239 -113.17306 4389 ft 100 kts 72°
2026-04-29 02:18 51.71013 -113.16219 4204 ft 114 kts 135°
2026-04-29 02:18 51.70250 -113.16125 4075 ft 120 kts 211°
2026-04-29 02:18 51.69927 -113.17223 3954 ft 111 kts 287°
2026-04-29 02:18 51.70318 -113.18233 3887 ft 101 kts 315°
2026-04-29 02:19 51.70778 -113.19046 3954 ft 98 kts 320°
2026-04-29 02:19 51.71289 -113.19750 4087 ft 95 kts 326°
2026-04-29 02:19 51.71850 -113.20297 4119 ft 95 kts 337°
2026-04-29 02:19 51.72426 -113.20812 4152 ft 96 kts 332°
2026-04-29 02:20 51.72784 -113.21666 4063 ft 100 kts 270°
2026-04-29 02:20 51.72360 -113.22554 3913 ft 101 kts 221°
2026-04-29 02:20 51.71855 -113.23250 3851 ft 87 kts 221°
2026-04-29 02:20 51.71351 -113.23792 3756 ft 87 kts 191°
2026-04-29 02:21 51.70887 -113.23382 3597 ft 76 kts 117°
2026-04-29 02:21 51.70586 -113.22716 3395 ft 73 kts 120°
2026-04-29 02:21 51.70280 -113.22109 3183 ft 67 kts 122°
2026-04-29 02:21 51.69982 -113.21553 2981 ft 64 kts 124°
2026-04-29 02:22 51.69748 -113.21124 2955 ft 41 kts 132°
2026-04-29 02:22 51.69621 -113.20908 2949 ft 6 kts 137°
2026-04-29 02:22 51.69671 -113.20984 2951 ft 23 kts 313°
2026-04-29 02:22 51.69813 -113.21243 2959 ft 35 kts 312°
2026-04-29 02:23 51.69897 -113.21455 2964 ft 10 kts 218°
2026-04-29 02:23 51.69858 -113.21508 2964 ft 3 kts 225°
2026-04-29 02:23 51.69839 -113.21532 2964 ft 6 kts 214°
2026-04-29 02:23 51.69838 -113.21540 2964 ft 0 kts 326°